Wind_Speed
5 5 5 5 6 5 4 4 4 4 3 3 3 3 4 5 5 5 5 5 5 6 6 6 6 7 7 7 7 6 6 7 7 8 9 9 10 10 10 10 9 9 9
5 5 5 5 5 5 4 4 4 4 3 3 3 3 4 4 5 6 6 6 6 7 7 7 7 7 7 7 7 7 7 7 7 8 8 9 9 9 10 10 10 10 10
5 5 4 4 4 4 4 4 4 4 4 4 4 4 4 5 6 6 6 6 6 7 8 8 8 7 7 7 7 7 8 8 8 8 8 8 8 8 9 9 10 10 11
6 5 4 5 4 4 4 4 4 5 5 5 5 5 6 7 7 7 7 7 8 8 8 8 7 8 7 8 8 8 8 8 8 8 8 8 7 8 8 8 9 9 9
6 5 4 5 5 5 5 5 5 6 6 6 6 7 7 8 8 8 8 8 8 8 8 8 8 8 8 8 9 9 8 8 9 9 9 9 8 8 8 8 8 9 9
6 6 6 6 7 6 6 6 6 7 7 8 8 9 9 9 8 9 9 9 9 9 10 9 9 9 9 9 9 9 9 8 9 9 9 9 9 9 9 8 8 9 9
8 8 7 7 7 7 7 7 7 8 8 9 9 10 10 10 10 10 9 9 9 9 9 10 10 9 9 9 9 9 9 9 9 9 9 9 9 9 9 9 9 8 8
8 9 9 9 8 8 8 8 8 8 9 10 10 10 10 10 11 10 10 10 10 10 10 10 10 10 10 10 10 9 9 9 10 10 10 10 10 10 10 9 9 9 9
8 9 10 9 9 10 10 10 9 10 10 10 10 11 11 11 10 11 11 11 11 11 11 11 12 11 11 11 11 10 10 10 10 10 10 11 11 10 10 9 9 9 10
10 10 10 11 10 10 11 11 11 11 11 11 11 11 12 12 12 12 12 12 13 12 12 12 12 12 11 10 10 10 11 11 11 11 12 12 12 11 11 10 10 10 10
12 11 11 12 12 12 12 11 12 12 12 12 12 12 13 13 14 14 14 14 14 14 13 13 12 12 11 11 10 11 12 12 12 12 13 12 12 11 11 11 11 11 11
12 13 13 13 12 13 14 13 13 13 14 13 13 13 14 14 15 15 14 14 14 14 14 14 13 13 12 12 12 12 12 12 12 13 13 13 12 12 12 12 11 11 11
14 14 14 15 14 14 14 15 15 15 15 15 15 15 15 15 15 15 15 15 15 14 14 14 14 14 13 13 13 13 12 12 13 13 13 13 13 13 13 13 12 12 11
14 15 15 16 16 15 15 15 15 16 15 15 15 16 16 16 16 16 16 16 15 15 15 14 14 14 15 14 14 14 14 14 14 14 14 14 14 14 14 13 13 13 13
16 17 17 17 17 16 16 16 16 15 16 16 16 16 16 16 17 17 17 17 16 16 16 15 15 15 16 16 15 15 15 15 15 15 15 15 15 15 15 14 14 13 14
18 18 19 19 18 18 18 17 16 16 16 17 18 18 18 18 18 18 17 17 16 16 17 17 17 16 16 16 16 15 15 16 16 16 16 16 16 16 16 15 15 14 14
19 19 19 20 20 20 19 19 18 19 18 19 19 20 20 20 20 20 19 18 18 18 18 18 18 18 17 17 16 16 16 16 16 16 16 16 16 16 17 16 16 15 15
20 19 20 20 20 21 21 21 21 21 21 21 21 22 22 22 22 22 21 20 19 19 20 19 19 18 18 18 17 17 17 17 17 17 16 16 16 16 16 16 16 16 16
21 21 21 20 21 21 22 23 23 23 24 24 23 23 23 23 23 23 22 22 21 20 20 20 20 19 19 19 19 18 18 18 18 18 17 17 17 17 16 16 16 16 16
22 23 23 22 22 22 22 23 25 25 25 25 25 25 24 24 23 24 24 23 22 22 22 22 21 21 20 20 20 19 18 19 19 19 19 19 18 18 18 18 17 17 17
23 23 23 23 22 22 22 23 24 25 26 26 26 26 25 25 24 24 24 23 23 23 23 23 23 23 22 21 21 20 20 20 21 20 20 20 20 20 19 19 18 19 19
24 24 24 25 24 24 24 24 25 25 26 26 26 26 26 25 24 25 25 25 26 25 25 25 24 24 23 23 22 22 22 22 22 21 21 22 22 21 21 21 21 21 21
23 24 25 26 26 26 26 27 27 27 27 27 27 27 26 27 27 27 27 27 26 27 26 26 25 26 25 24 24 23 23 23 23 23 23 23 23 23 22 22 23 23 23
24 25 26 27 27 27 27 28 28 28 28 28 28 28 27 27 28 29 28 28 27 26 26 27 26 26 26 26 26 25 25 25 25 25 25 25 25 25 24 24 23 24 24
25 26 26 27 28 28 28 28 28 28 29 29 28 28 28 28 28 28 29 29 28 27 27 27 27 27 27 27 27 27 26 26 26 26 26 26 26 26 26 25 25 25 25
26 26 27 27 27 28 28 28 28 28 28 28 28 28 28 29 29 29 29 29 29 29 29 29 29 28 27 27 27 27 26 26 26 26 26 27 27 27 27 27 27 27 27
Wind_Direction
314 317 324 329 326 324 309 304 308 311 311 305 297 288 280 277 282 284 281 275 276 283 286 284 279 278 273 270 268 268 271 274 278 279 282 281 279 279 278 280 282 279 279
313 313 312 317 324 323 317 306 303 305 303 305 300 300 292 287 284 283 284 281 278 279 279 280 279 279 274 270 267 266 265 267 274 280 285 282 278 278 279 279 279 278 279
309 304 302 306 318 317 306 297 298 299 298 297 302 305 298 290 287 286 284 284 283 283 280 279 282 286 281 275 271 269 267 266 268 276 282 287 284 285 286 279 278 280 281
307 295 290 291 304 310 302 294 293 293 294 295 295 298 295 290 289 288 286 285 285 288 287 284 288 291 286 277 272 268 269 271 271 274 278 283 287 287 291 287 281 283 284
299 292 287 290 299 304 296 291 295 291 290 290 289 291 292 292 290 289 288 286 285 289 286 285 286 289 286 280 276 271 273 276 276 275 275 279 283 288 288 285 279 279 282
288 285 283 287 292 294 293 288 288 289 285 286 289 291 291 291 292 289 288 286 283 283 285 285 285 287 286 281 275 272 271 272 272 271 274 277 279 283 283 281 282 283 283
283 279 279 283 285 287 288 287 283 283 284 285 289 292 293 290 291 288 282 283 283 282 284 284 281 282 280 279 276 271 268 266 266 268 273 273 277 282 282 281 282 284 285
287 282 276 280 281 282 281 284 283 284 284 286 287 288 290 287 287 287 279 277 279 280 283 285 284 279 275 273 272 271 270 269 268 270 268 268 273 279 282 282 283 286 285
290 285 278 280 280 276 278 278 278 282 285 282 283 286 290 289 286 286 284 280 279 279 282 286 287 284 277 272 269 265 267 267 265 267 269 268 271 275 278 280 281 286 286
286 288 282 282 282 277 276 277 276 282 283 280 281 284 288 288 287 285 283 282 281 279 280 283 284 285 280 274 269 267 267 268 266 265 266 268 270 271 272 277 280 285 288
284 285 284 281 279 279 279 280 277 281 283 282 282 283 285 286 286 284 280 280 280 280 279 281 281 280 277 278 271 271 267 268 269 268 266 266 267 269 270 274 278 283 287
282 282 281 280 281 278 276 276 278 280 281 281 281 283 284 286 285 284 280 280 279 279 279 279 279 277 275 277 275 272 268 269 271 270 269 267 267 267 269 272 276 282 287
279 279 277 277 277 278 278 279 277 277 279 279 279 279 282 285 283 282 280 279 278 280 280 279 276 274 272 275 278 273 268 267 270 270 271 269 268 267 269 272 275 279 283
278 276 277 277 275 276 277 280 280 279 280 282 284 282 281 282 283 281 279 278 275 277 278 279 274 271 270 273 277 272 268 266 268 269 269 268 267 267 271 274 274 275 279
277 275 275 276 276 276 277 279 281 282 281 281 283 284 283 282 282 280 277 278 277 275 276 276 274 272 271 270 274 272 269 268 269 269 268 267 268 270 272 274 273 273 275
274 274 274 272 274 275 276 278 279 281 283 281 280 282 282 281 281 279 277 275 276 276 277 275 274 272 270 270 270 272 272 271 271 270 267 267 268 271 272 271 271 274 275
273 271 272 272 273 275 275 275 278 280 282 283 282 281 280 280 280 279 276 275 274 274 275 274 274 271 269 268 269 270 270 270 270 270 269 267 269 270 269 270 270 271 272
274 273 272 273 273 274 274 273 274 277 279 281 281 281 279 279 279 278 276 275 274 274 273 272 273 272 268 266 267 267 267 267 268 267 269 269 268 270 270 270 271 269 270
273 272 273 274 274 273 273 274 273 275 277 279 279 280 279 279 278 275 275 276 274 273 273 272 271 271 269 266 265 266 267 268 268 266 267 266 266 266 270 272 274 272 273
274 273 272 273 273 272 272 273 275 276 277 278 279 278 278 277 276 273 274 274 272 272 272 272 272 270 269 267 266 266 268 268 267 265 265 266 267 266 268 270 273 273 274
272 273 272 273 273 273 273 274 275 276 277 276 276 276 275 274 273 271 271 272 273 272 269 269 271 270 269 269 267 266 268 269 268 265 264 265 265 266 266 266 269 272 273
274 273 272 273 272 273 275 277 277 278 278 276 276 276 274 272 271 271 269 270 271 271 269 267 268 269 267 266 267 267 269 268 268 267 265 265 265 265 266 266 267 270 272
276 276 275 275 275 276 277 277 276 276 277 277 277 277 274 271 270 270 269 268 269 270 269 267 266 266 266 265 265 265 267 267 268 268 265 264 263 264 266 268 268 270 272
278 279 279 277 277 276 277 277 276 276 276 277 277 276 274 273 271 269 269 269 269 269 268 266 265 264 262 263 265 266 266 266 266 266 265 264 262 262 265 266 268 270 270
278 280 279 280 279 276 276 276 276 276 277 277 276 276 275 275 273 270 269 268 267 267 267 266 266 266 264 264 264 265 267 266 266 266 265 264 263 263 264 266 267 268 269
277 277 278 280 279 277 276 276 275 276 277 277 277 277 276 274 273 271 270 269 269 268 268 268 267 268 265 265 265 265 265 266 265 265 264 263 263 263 264 265 266 266 267
Height
5875 5874 5874 5873 5873 5872 5872 5872 5872 5872 5872 5872 5872 5872 5871 5871 5871 5871 5871 5871 5871 5870 5870 5870 5869 5869 5869 5869 5869 5869 5869 5869 5869 5869 5869 5869 5868 5868 5868 5868 5868 5868 5867
5874 5874 5873 5873 5872 5872 5872 5872 5872 5871 5871 5871 5871 5871 5870 5870 5870 5870 5870 5870 5869 5869 5869 5868 5868 5868 5867 5867 5867 5867 5867 5867 5867 5867 5867 5867 5866 5866 5866 5866 5866 5866 5865
5873 5873 5872 5872 5871 5871 5871 5871 5870 5870 5870 5870 5870 5870 5870 5869 5869 5869 5869 5868 5868 5868 5867 5867 5867 5866 5866 5866 5865 5866 5866 5865 5865 5865 5865 5865 5865 5864 5864 5864 5863 5863 5863
5872 5871 5871 5871 5870 5870 5870 5870 5870 5869 5869 5869 5869 5869 5869 5868 5868 5867 5867 5867 5866 5866 5866 5865 5865 5864 5864 5864 5864 5864 5864 5864 5863 5863 5863 5863 5863 5862 5862 5862 5861 5861 5861
5870 5870 5870 5869 5869 5869 5869 5869 5868 5868 5868 5868 5868 5867 5867 5867 5866 5866 5865 5865 5864 5864 5864 5863 5863 5863 5862 5862 5862 5862 5862 5862 5861 5862 5862 5861 5861 5861 5860 5860 5859 5859 5859
5868 5868 5868 5868 5867 5867 5867 5867 5867 5866 5866 5866 5866 5866 5865 5865 5864 5864 5864 5863 5863 5862 5862 5861 5861 5860 5860 5860 5860 5860 5860 5860 5859 5859 5859 5859 5859 5859 5858 5858 5857 5857 5856
5867 5866 5866 5866 5865 5865 5865 5865 5865 5864 5864 5864 5864 5863 5863 5863 5862 5862 5861 5861 5860 5860 5859 5859 5859 5858 5858 5858 5857 5857 5857 5857 5857 5857 5857 5857 5857 5856 5856 5855 5855 5855 5854
5864 5864 5864 5864 5863 5863 5863 5863 5863 5862 5862 5862 5861 5861 5861 5861 5860 5859 5859 5858 5858 5857 5857 5856 5856 5856 5855 5855 5855 5855 5855 5855 5855 5855 5854 5854 5854 5854 5854 5853 5853 5852 5852
5862 5862 5862 5861 5861 5860 5860 5860 5860 5860 5860 5859 5859 5858 5858 5857 5857 5857 5856 5855 5855 5855 5854 5854 5853 5853 5852 5852 5852 5852 5852 5852 5852 5852 5852 5852 5852 5852 5851 5851 5851 5850 5849
5860 5860 5859 5859 5858 5858 5857 5857 5857 5857 5857 5856 5856 5855 5855 5854 5854 5853 5853 5853 5852 5851 5851 5851 5850 5850 5849 5849 5849 5849 5849 5849 5849 5849 5849 5849 5849 5849 5849 5848 5848 5848 5847
5857 5857 5857 5856 5855 5855 5855 5854 5854 5854 5853 5853 5853 5852 5852 5851 5850 5850 5850 5849 5849 5848 5848 5847 5847 5847 5846 5846 5846 5846 5846 5846 5846 5846 5846 5846 5846 5846 5846 5846 5846 5845 5844
5854 5854 5853 5853 5852 5852 5852 5851 5851 5850 5850 5850 5849 5849 5848 5848 5847 5846 5846 5845 5845 5845 5844 5844 5844 5843 5843 5843 5843 5843 5843 5843 5843 5843 5843 5843 5843 5843 5843 5843 5843 5842 5842
5850 5850 5849 5849 5849 5849 5848 5848 5847 5847 5846 5846 5845 5845 5844 5844 5843 5842 5842 5842 5841 5841 5841 5841 5840 5840 5840 5840 5840 5839 5839 5839 5839 5839 5840 5840 5840 5840 5840 5840 5840 5839 5839
5846 5846 5846 5845 5845 5845 5844 5844 5843 5842 5842 5842 5841 5841 5840 5840 5839 5839 5838 5838 5837 5837 5837 5837 5836 5836 5836 5836 5836 5836 5836 5836 5836 5836 5836 5837 5837 5837 5837 5837 5837 5836 5836
5842 5841 5841 5841 5841 5841 5840 5840 5839 5838 5838 5838 5837 5837 5836 5836 5835 5835 5834 5834 5834 5833 5833 5832 5832 5832 5832 5832 5832 5832 5832 5832 5832 5832 5832 5833 5833 5833 5833 5833 5833 5833 5832
5837 5837 5837 5836 5836 5836 5836 5835 5835 5834 5834 5833 5832 5832 5832 5831 5830 5830 5830 5829 5829 5829 5829 5828 5828 5828 5827 5827 5828 5828 5828 5828 5828 5828 5828 5828 5829 5829 5829 5829 5829 5829 5829
5832 5832 5831 5831 5831 5831 5831 5831 5830 5829 5829 5828 5828 5827 5827 5826 5825 5825 5825 5824 5824 5824 5824 5824 5823 5823 5823 5823 5823 5823 5823 5823 5824 5824 5824 5824 5824 5825 5825 5825 5825 5825 5825
5826 5826 5826 5826 5826 5826 5825 5825 5825 5824 5824 5823 5822 5822 5821 5821 5820 5820 5819 5819 5819 5819 5819 5818 5818 5818 5818 5818 5818 5819 5819 5819 5819 5820 5820 5820 5820 5820 5820 5820 5821 5821 5821
5821 5821 5820 5820 5820 5820 5819 5819 5818 5818 5817 5817 5816 5816 5815 5815 5814 5814 5813 5813 5813 5813 5813 5813 5813 5813 5813 5813 5813 5814 5814 5814 5815 5815 5815 5815 5816 5816 5816 5816 5817 5817 5817
5815 5815 5815 5815 5814 5814 5813 5812 5812 5811 5811 5810 5810 5809 5809 5808 5808 5807 5807 5807 5807 5807 5807 5807 5807 5807 5807 5808 5808 5809 5809 5809 5809 5810 5810 5810 5811 5811 5811 5812 5812 5812 5812
5809 5808 5808 5808 5808 5807 5807 5806 5805 5805 5804 5803 5803 5802 5802 5801 5801 5801 5801 5801 5800 5800 5801 5801 5801 5801 5801 5802 5803 5803 5804 5804 5804 5804 5804 5805 5805 5806 5806 5806 5807 5807 5807
5802 5802 5801 5801 5801 5800 5800 5799 5798 5798 5797 5796 5795 5795 5794 5794 5794 5794 5794 5794 5794 5794 5794 5794 5795 5795 5795 5796 5796 5797 5797 5797 5798 5798 5798 5799 5799 5800 5800 5801 5801 5801 5801
5795 5795 5795 5794 5793 5793 5792 5792 5791 5790 5789 5789 5788 5787 5786 5786 5786 5786 5786 5787 5787 5787 5787 5787 5788 5788 5788 5789 5789 5790 5790 5791 5791 5791 5792 5792 5793 5794 5794 5794 5795 5795 5795
5788 5788 5787 5786 5786 5785 5784 5784 5783 5782 5781 5781 5780 5779 5779 5778 5778 5778 5778 5779 5779 5779 5779 5780 5781 5781 5781 5781 5782 5783 5783 5784 5784 5784 5785 5786 5786 5787 5787 5787 5788 5788 5788
5781 5780 5779 5778 5777 5777 5776 5775 5774 5773 5773 5772 5771 5770 5770 5770 5770 5769 5770 5771 5771 5771 5772 5772 5773 5773 5773 5774 5774 5775 5776 5776 5777 5777 5777 5778 5779 5779 5780 5780 5780 5780 5780
5773 5772 5771 5770 5769 5768 5768 5767 5766 5765 5765 5764 5762 5762 5762 5761 5761 5761 5761 5762 5763 5763 5764 5764 5764 5765 5765 5766 5767 5767 5768 5768 5769 5770 5770 5770 5771 5771 5772 5772 5772 5772 5772